PEGASUS DEB, 39923

Orbit data source: Space-Track

PEGASUS DEB, 39923 is space debris in LEO originally from a launch on Thu, 19 May 1994 UTC launched from the Air Force Western Test Range (AFWTR). Debris objects in space refer to the collection of defunct objects orbiting the Earth. Examples of debris include non-operational satellites, rocket bodies, and fragments generated from explosions, collisions, or faulty payload assembly.

Loading next visibility...
Identifier
39923, 1994-029AFW
Orbit
LEO
Country
Flag of USUS
Related business
Manufacturer
Unknown
Mission
Spacecraft
Bus & Motor
Unknown
Mass
Unknown
Launch date (UTC)
1994-05-19 (32 years ago)
Launch vehicle
Unknown
Launch site
Air Force Western Test Range (AFWTR)
Object type
Payload
Rocket body
Debris
Shape & HBR
Unknown shape, 0.1 m
Radar Cross Section
Small (<0.1 m²)

Expand to show TLE details & history
Last TLE update: 4 days ago

TLE from 4 days ago
0 PEGASUS DEB
1 39923U 94029AFW 26045.01115812  .00005863  00000-0  18125-2 0  9997
2 39923  82.1466 310.1334 0528677 353.1786   6.2360 13.82605489 37483
Epoch: 2026-02-14T00:16Z
TLE epoch observation values (Epoch: 2026-02-14T00:16:04.061Z)
Latitude
-0.00004°
Longitude
162.07613°
Altitude
572.374 km
Speed
7.771 km/s
True Right ascension
20h 40m 32s
True Declination
0° 00' 00"
Sunlit
Object was in daylight at epoch
Visualization orbit readout
Latitude
Unknown
Longitude
Unknown
Altitude
Unknown
Speed
Unknown
Apparent Right ascension
Unknown
Apparent Declination
Unknown
Sunlit
N/A
Visualization observer readout
Local Sidereal Time
04:55:50
Azimuth
Unknown
Elevation
Unknown
Doppler factor
Unknown
Orbital elements
Apogee altitude
1,339.336 km
Perigee altitude
564.301 km
Semi-major axis
7,329.955 km
Eccentricity
0.05287
Inclination
82.1466°
RAAN
310.1334°
Arg. of periapsis
353.1786°
True anomaly
6.94018°
Mean anomaly
6.236°
Eccentric anomaly
6.58328°
Mean motion
3.45853 °/min
Orbital period
104.09 mins
BSTAR
0.0018125
Loading maneuver chart data...
Computing Atmospheric mass density...

Documentation

Showing up to 5 results
|